• In Latvia
  • List of Countries
  • For 7 days
  • Water Temperature
  • Satellite Maps
  • Weather Map
  • Weather Widgets
  • user-avatar
    Login

    Hourly Weather Donets'k

    Today, 18 June, Monday

    Time Temperature Precipitation Wind Pressure Humidity
    00:00 +18°C° 0 mm 3 mps 744 mmHg 56%
    01:00 +18°C° 0 mm 3 mps 743 mmHg 56%
    02:00 +17°C° 0 mm 3 mps 743 mmHg 56%
    03:00 +15°C° 0 mm 4 mps 743 mmHg 56%
    04:00 +15°C° 0 mm 4 mps 743 mmHg 57%
    05:00 +15°C° 0 mm 4 mps 743 mmHg 59%
    06:00 +15°C° 0 mm 4 mps 743 mmHg 60%
    07:00 +17°C° 0 mm 5 mps 743 mmHg 54%
    08:00 +21°C° 0 mm 5 mps 744 mmHg 49%
    09:00 +23°C° 0 mm 6 mps 744 mmHg 44%
    10:00 +24°C° 0 mm 6 mps 744 mmHg 41%
    11:00 +26°C° 0 mm 6 mps 744 mmHg 38%
    12:00 +27°C° 0 mm 6 mps 744 mmHg 35%
    13:00 +28°C° 0 mm 5 mps 744 mmHg 34%
    14:00 +28°C° 0 mm 5 mps 744 mmHg 34%
    15:00 +28°C° 0 mm 5 mps 744 mmHg 34%
    16:00 +28°C° 0 mm 5 mps 743 mmHg 37%
    17:00 +28°C° 0 mm 4 mps 743 mmHg 40%
    18:00 +27°C° 0 mm 4 mps 743 mmHg 43%
    19:00 +25°C° 0 mm 4 mps 743 mmHg 46%
    20:00 +22°C° 0 mm 4 mps 744 mmHg 50%
    21:00 +21°C° 0 mm 3 mps 744 mmHg 54%
    22:00 +20°C° 0 mm 3 mps 744 mmHg 56%
    23:00 +19°C° 0 mm 3 mps 744 mmHg 58%

    Tomorrow, 19 June, Tuesday

    Time Temperature Precipitation Wind Pressure Humidity
    00:00 +18°C° 0 mm 3 mps 744 mmHg 60%
    01:00 +18°C° 0 mm 3 mps 745 mmHg 64%
    02:00 +18°C° 0 mm 3 mps 745 mmHg 67%
    03:00 +17°C° 0 mm 3 mps 745 mmHg 71%
    04:00 +17°C° 0 mm 3 mps 745 mmHg 72%
    05:00 +18°C° 0 mm 3 mps 745 mmHg 72%
    06:00 +18°C° 0 mm 3 mps 745 mmHg 73%
    07:00 +20°C° 0 mm 3 mps 746 mmHg 66%
    08:00 +22°C° 0 mm 4 mps 746 mmHg 59%
    09:00 +25°C° 0 mm 4 mps 746 mmHg 52%
    10:00 +26°C° 0 mm 4 mps 746 mmHg 48%
    11:00 +27°C° 0 mm 3 mps 746 mmHg 43%
    12:00 +28°C° 0 mm 3 mps 746 mmHg 38%
    13:00 +29°C° 0 mm 3 mps 746 mmHg 38%
    14:00 +29°C° 0 mm 3 mps 746 mmHg 37%
    15:00 +29°C° 0 mm 2 mps 746 mmHg 37%
    16:00 +29°C° 0 mm 2 mps 746 mmHg 38%
    17:00 +29°C° 0 mm 2 mps 746 mmHg 40%
    18:00 +28°C° 0 mm 2 mps 746 mmHg 42%
    19:00 +27°C° 0 mm 2 mps 746 mmHg 46%
    20:00 +25°C° 0 mm 2 mps 746 mmHg 50%
    21:00 +23°C° 0 mm 2 mps 746 mmHg 54%
    22:00 +21°C° 0 mm 2 mps 746 mmHg 56%
    23:00 +21°C° 0 mm 2 mps 746 mmHg 59%

    Day after tomorrow, 20 June, Wednesday

    Time Temperature Precipitation Wind Pressure Humidity
    00:00 +20°C° 0 mm 2 mps 747 mmHg 61%
    01:00 +19°C° 0 mm 2 mps 747 mmHg 62%
    02:00 +20°C° 0 mm 1 mps 747 mmHg 64%
    03:00 +20°C° 0 mm 1 mps 747 mmHg 66%
    04:00 +20°C° 0 mm 1 mps 747 mmHg 66%
    05:00 +21°C° 0 mm 1 mps 747 mmHg 67%
    06:00 +21°C° 0 mm 1 mps 747 mmHg 67%
    07:00 +23°C° 0 mm 1 mps 747 mmHg 61%
    08:00 +25°C° 0 mm 2 mps 747 mmHg 55%
    09:00 +27°C° 0 mm 2 mps 748 mmHg 50%
    10:00 +28°C° 0 mm 2 mps 748 mmHg 47%
    11:00 +29°C° 0 mm 2 mps 748 mmHg 44%
    12:00 +30°C° 0 mm 2 mps 748 mmHg 41%
    13:00 +30°C° 0 mm 2 mps 747 mmHg 40%
    14:00 +31°C° 0 mm 2 mps 747 mmHg 40%
    15:00 +31°C° 0 mm 2 mps 747 mmHg 39%
    16:00 +31°C° 0 mm 2 mps 747 mmHg 40%
    17:00 +31°C° 0 mm 2 mps 747 mmHg 42%
    18:00 +30°C° 0 mm 2 mps 746 mmHg 44%
    19:00 +29°C° 0 mm 2 mps 747 mmHg 49%
    20:00 +27°C° 0 mm 2 mps 747 mmHg 55%
    21:00 +25°C° 0 mm 2 mps 747 mmHg 60%
    22:00 +25°C° 0 mm 1 mps 747 mmHg 62%
    23:00 +24°C° 0 mm 1 mps 747 mmHg 65%

    21 June, Thursday

    Time Temperature Precipitation Wind Pressure Humidity
    00:00 +23°C° 0 mm 1 mps 747 mmHg 67%
    01:00 +23°C° 0 mm 1 mps 747 mmHg 69%
    02:00 +22°C° 0 mm 1 mps 747 mmHg 71%
    03:00 +22°C° 0 mm 1 mps 747 mmHg 73%
    04:00 +22°C° 0 mm 1 mps 747 mmHg 73%
    05:00 +23°C° 0 mm 1 mps 747 mmHg 74%
    06:00 +23°C° 0 mm 1 mps 747 mmHg 75%
    07:00 +25°C° 0 mm 1 mps 747 mmHg 69%
    08:00 +27°C° 0 mm 1 mps 747 mmHg 63%
    09:00 +28°C° 0 mm 1 mps 747 mmHg 57%
    10:00 +29°C° 0.2 mm 1 mps 747 mmHg 53%
    11:00 +31°C° 0.2 mm 1 mps 747 mmHg 50%
    12:00 +32°C° 0.2 mm 1 mps 746 mmHg 46%
    13:00 +31°C° 0.2 mm 2 mps 746 mmHg 47%
    14:00 +31°C° 0.2 mm 2 mps 746 mmHg 47%
    15:00 +31°C° 0.2 mm 2 mps 746 mmHg 48%
    16:00 +31°C° 0.2 mm 2 mps 745 mmHg 51%
    17:00 +30°C° 0.2 mm 3 mps 745 mmHg 53%
    18:00 +30°C° 0.2 mm 3 mps 745 mmHg 55%
    19:00 +28°C° 0.1 mm 3 mps 745 mmHg 59%
    20:00 +27°C° 0.1 mm 3 mps 745 mmHg 63%
    21:00 +26°C° 0.1 mm 3 mps 745 mmHg 67%
    22:00 +25°C° 0 mm 3 mps 745 mmHg 69%
    23:00 +24°C° 0 mm 3 mps 745 mmHg 70%

    22 June, Friday

    Time Temperature Precipitation Wind Pressure Humidity
    00:00 +24°C° 0 mm 3 mps 745 mmHg 72%
    01:00 +22°C° 0 mm 3 mps 745 mmHg 73%
    02:00 +22°C° 0 mm 3 mps 745 mmHg 74%
    03:00 +21°C° 0 mm 3 mps 744 mmHg 75%
    04:00 +22°C° 0 mm 3 mps 744 mmHg 75%
    05:00 +22°C° 0 mm 3 mps 744 mmHg 75%
    06:00 +22°C° 0 mm 3 mps 744 mmHg 75%
    07:00 +25°C° 0 mm 4 mps 744 mmHg 69%
    08:00 +27°C° 0 mm 4 mps 744 mmHg 63%
    09:00 +29°C° 0 mm 4 mps 744 mmHg 57%
    10:00 +30°C° 0.1 mm 4 mps 744 mmHg 52%
    11:00 +32°C° 0.1 mm 4 mps 743 mmHg 48%
    12:00 +34°C° 0.1 mm 4 mps 743 mmHg 43%
    13:00 +34°C° 0 mm 4 mps 743 mmHg 42%
    14:00 +34°C° 0 mm 3 mps 742 mmHg 41%
    15:00 +34°C° 0 mm 3 mps 742 mmHg 40%
    16:00 +33°C° 0 mm 3 mps 742 mmHg 42%
    17:00 +33°C° 0 mm 3 mps 741 mmHg 45%
    18:00 +33°C° 0 mm 3 mps 741 mmHg 47%
    19:00 +30°C° 0 mm 3 mps 741 mmHg 49%
    20:00 +29°C° 0 mm 3 mps 741 mmHg 50%
    21:00 +28°C° 0 mm 3 mps 741 mmHg 52%
    22:00 +28°C° 0 mm 3 mps 741 mmHg 53%
    23:00 +27°C° 0 mm 3 mps 741 mmHg 54%

    23 June, Saturday

    Time Temperature Precipitation Wind Pressure Humidity
    00:00 +27°C° 0 mm 3 mps 741 mmHg 55%
    01:00 +26°C° 0.3 mm 3 mps 741 mmHg 58%
    02:00 +26°C° 0.3 mm 3 mps 741 mmHg 62%
    03:00 +25°C° 0.3 mm 3 mps 741 mmHg 65%
    04:00 +25°C° 0.5 mm 3 mps 741 mmHg 68%
    05:00 +24°C° 0.5 mm 2 mps 741 mmHg 70%
    06:00 +24°C° 0.5 mm 2 mps 741 mmHg 73%
    07:00 +24°C° 0.5 mm 3 mps 741 mmHg 74%
    08:00 +24°C° 0.5 mm 3 mps 742 mmHg 75%
    09:00 +24°C° 0.5 mm 3 mps 742 mmHg 76%
    10:00 +26°C° 0.2 mm 3 mps 742 mmHg 68%
    11:00 +27°C° 0.2 mm 3 mps 742 mmHg 61%
    12:00 +29°C° 0.2 mm 4 mps 742 mmHg 53%
    13:00 +30°C° 0.1 mm 4 mps 741 mmHg 49%
    14:00 +32°C° 0.1 mm 4 mps 741 mmHg 44%
    15:00 +33°C° 0.1 mm 4 mps 741 mmHg 39%
    16:00 +32°C° 0 mm 4 mps 741 mmHg 42%
    17:00 +31°C° 0 mm 3 mps 741 mmHg 45%
    18:00 +30°C° 0 mm 3 mps 741 mmHg 48%
    19:00 +28°C° 0 mm 3 mps 741 mmHg 55%
    20:00 +26°C° 0 mm 2 mps 741 mmHg 62%
    21:00 +25°C° 0 mm 2 mps 741 mmHg 68%
    22:00 +24°C° 0.2 mm 2 mps 741 mmHg 72%
    23:00 +23°C° 0.2 mm 2 mps 742 mmHg 76%
    Show more